Station UTVT2 - 8775236 - UTMSI Visibility, TX Image indicating link to RSS feed of recent meteorological observations for station UTVT2


Conditions at UTVT2 as of
(4:54 pm CDT)
2154 GMT on 04/19/2024:
     

Click on the graph icon in the table below to see a time series plot of the last five days of that observation.

5-day plot - Atmospheric Pressure Atmospheric Pressure (PRES):29.85 in
5-day plot - Air Temperature Air Temperature (ATMP): 78.1 °F
5-day plot - Dew Point Dew Point (DEWP): 76.1 °F
5-day plot - Visibility Visibility (VIS): 5.9 nmi
5-day plot - Heat Index Heat Index (HEAT): 80.8 °F
NOS Water Level Observation Network Water Level
Previous observations
TIME
(CDT)
5-day plot - Wind Direction
WDIR
 
5-day plot - Wind Speed
WSPD
kts
5-day plot - Wind Gust
GST
kts
5-day plot - Wave Height
WVHT
ft
5-day plot - Dominant Wave Period
DPD
sec
5-day plot - Average Wave Period
APD
sec
5-day plot - Mean Wave Direction
MWD
 
5-day plot - Atmospheric Pressure
PRES
in
5-day plot - Pressure Tendency
PTDY
in
5-day plot - Air Temperature
ATMP
°F
5-day plot - Water Temperature
WTMP
°F
5-day plot - Dew Point
DEWP
°F
5-day plot - Salinity
SAL
psu
5-day plot - Visibility
VIS
nmi
5-day plot - Tide (above MLLW)
TIDE
ft
2024-04-19 04:48 pm-------29.85- 77.9- 75.9- 5.9-
2024-04-19 04:42 pm-------29.85- 78.1- 75.9- 5.9-
2024-04-19 04:36 pm-------29.85- 78.4- 76.1- 5.9-
2024-04-19 04:30 pm-------29.85- 78.6- 76.5- 5.9-
2024-04-19 04:24 pm-------29.86- 78.3- 75.9- 5.9-
2024-04-19 04:18 pm-------29.86- 78.3- 75.9- 5.9-
2024-04-19 04:12 pm-------29.87- 78.8- 75.9- 5.9-
2024-04-19 04:06 pm-------29.87- 79.5- 76.1- 5.9-
2024-04-19 04:00 pm-------29.87-0.05 79.3- 76.1- 5.9-
2024-04-19 03:54 pm-------29.87- 78.8- 75.7- 5.9-
2024-04-19 03:48 pm-------29.87- 79.0- 76.1- 5.9-
2024-04-19 03:42 pm-------29.87- 78.4- 76.3- 5.9-
2024-04-19 03:36 pm-------29.87- 78.6- 76.5- 5.9-
2024-04-19 03:30 pm-------29.87- 78.3- 76.3- 5.9-
2024-04-19 03:24 pm-------29.87- 78.1- 76.1- 5.9-
2024-04-19 03:18 pm-------29.87- 78.3- 76.1- 5.9-
2024-04-19 03:12 pm-------29.87- 78.6- 76.5- 5.9-
2024-04-19 03:06 pm-------29.87- 78.4- 76.5- 5.9-
2024-04-19 03:00 pm-------29.88-0.05 78.6- 76.5- 5.9-
2024-04-19 02:54 pm-------29.88- 78.4- 76.3- 5.9-
2024-04-19 02:48 pm-------29.88- 78.4- 76.3- 5.9-
2024-04-19 02:42 pm-------29.88- 78.6- 76.3- 5.9-
2024-04-19 02:36 pm-------29.89- 78.8- 76.3- 5.9-
2024-04-19 02:30 pm-------29.89- 79.0- 76.6- 5.9-
2024-04-19 02:24 pm-------29.90- 78.8- 76.5- 5.9-
2024-04-19 02:18 pm-------29.90- 78.8- 76.5- 5.9-
2024-04-19 02:12 pm-------29.90- 78.6- 76.3- 5.9-
2024-04-19 02:06 pm-------29.90- 78.8- 76.5- 5.9-
2024-04-19 02:00 pm-------29.90-0.02 78.3- 76.1- 5.9-
2024-04-19 01:54 pm-------29.90- 78.8- 76.1- 5.9-
2024-04-19 01:48 pm-------29.90- 79.0- 76.5- 5.9-
2024-04-19 01:42 pm-------29.90- 78.6- 76.1- 5.9-
2024-04-19 01:36 pm-------29.90- 79.0- 76.5- 5.9-
2024-04-19 01:30 pm-------29.90- 79.0- 76.6- 5.9-
2024-04-19 01:24 pm-------29.90- 78.3- 76.1- 5.9-
2024-04-19 01:18 pm-------29.91- 78.6- 76.3- 5.9-
2024-04-19 01:12 pm-------29.91- 79.0- 76.5- 5.9-
2024-04-19 01:06 pm-------29.92- 79.0- 76.3- 5.9-
2024-04-19 01:00 pm-------29.92+0.01 79.3- 76.5- 5.9-
2024-04-19 12:54 pm-------29.92- 79.5- 76.5- 5.9-
2024-04-19 12:48 pm-------29.92- 79.3- 76.5- 5.9-
2024-04-19 12:42 pm-------29.92- 78.8- 76.1- 5.9-
2024-04-19 12:36 pm-------29.92- 79.2- 76.3- 5.9-
2024-04-19 12:30 pm-------29.93- 79.9- 76.6- 5.9-
2024-04-19 12:24 pm-------29.93- 79.5- 76.1- 5.9-
2024-04-19 12:18 pm-------29.92- 79.2- 75.9- 5.9-
2024-04-19 12:12 pm-------29.92- 79.2- 76.1- 5.9-
2024-04-19 12:06 pm-------29.93- 79.2- 75.6- 5.9-
2024-04-19 12:00 pm-------29.93+0.05 79.9- 75.6- 5.9-
2024-04-19 11:54 am-------29.93- 80.1- 75.7- 5.9-
2024-04-19 11:48 am-------29.93- 79.3- 75.9- 5.9-
2024-04-19 11:42 am-------29.93- 79.7- 76.1- 5.9-
2024-04-19 11:36 am-------29.93- 80.2- 75.6- 5.9-
2024-04-19 11:30 am-------29.92- 80.1- 75.6- 5.9-
2024-04-19 11:24 am-------29.92- 79.2- 75.7- 5.9-
2024-04-19 11:18 am-------29.92- 79.2- 75.7- 5.9-
2024-04-19 11:12 am-------29.92- 79.9- 75.9- 5.9-
2024-04-19 11:06 am-------29.92- 79.3- 75.7- 5.9-
2024-04-19 11:00 am-------29.92+0.08 79.3- 75.9- 5.9-
2024-04-19 10:54 am-------29.92- 79.7- 75.7- 5.9-
2024-04-19 10:48 am-------29.92- 80.1- 75.9- 5.9-
2024-04-19 10:42 am-------29.91- 79.9- 75.6- 5.9-
2024-04-19 10:36 am-------29.91- 80.6- 75.2- 5.9-
2024-04-19 10:30 am-------29.91- 80.6- 75.2- 5.9-
2024-04-19 10:24 am-------29.90- 81.1- 74.8- 5.9-
2024-04-19 10:18 am-------29.90- 80.8- 74.8- 5.9-
2024-04-19 10:12 am-------29.91- 80.4- 74.8- 5.9-
2024-04-19 10:06 am-------29.90- 80.2- 74.8- 5.9-
2024-04-19 10:00 am-------29.91+0.06 80.1- 74.5- 5.9-
2024-04-19 09:54 am-------29.90- 81.1- 74.7- 5.9-
2024-04-19 09:48 am-------29.90- 81.3- 75.2- 5.9-
2024-04-19 09:42 am-------29.90- 81.5- 75.9- 5.9-
2024-04-19 09:36 am-------29.91- 80.8- 75.4- 5.9-
2024-04-19 09:30 am-------29.90- 80.2- 75.6- 5.9-
2024-04-19 09:24 am-------29.90- 79.9- 75.7- 5.9-
2024-04-19 09:18 am-------29.90- 79.3- 76.1- 5.9-
2024-04-19 09:12 am-------29.89- 78.4- 75.4- 5.9-
2024-04-19 09:06 am-------29.88- 78.4- 75.4- 5.9-
2024-04-19 09:00 am-------29.88+0.03 78.3- 75.6- 5.9-
2024-04-19 08:54 am-------29.88- 77.7- 75.2- 5.9-
2024-04-19 08:48 am-------29.88- 77.9- 75.4- 5.9-
2024-04-19 08:42 am-------29.87- 77.9- 75.6- 5.9-
2024-04-19 08:36 am-------29.86- 77.5- 75.4- 5.9-
2024-04-19 08:30 am-------29.86- 77.4- 75.4- 5.9-
2024-04-19 08:24 am-------29.85- 77.4- 75.2- 5.9-
2024-04-19 08:18 am-------29.85- 77.4- 75.4- 5.9-
2024-04-19 08:12 am-------29.84- 77.4- 75.4- 5.9-
2024-04-19 08:06 am-------29.84- 77.4- 75.4- 5.9-
2024-04-19 08:00 am-------29.84+0.00 77.2- 75.2- 5.9-
2024-04-19 07:54 am-------29.84- 77.4- 75.4- 5.9-
2024-04-19 07:48 am-------29.84- 77.0- 75.4- 5.9-
2024-04-19 07:42 am-------29.84- 76.5- 75.6- 5.9-
2024-04-19 07:36 am-------29.84- 76.3- 75.7- 5.9-
2024-04-19 07:30 am-------29.84- 75.9- 75.6- 5.9-
2024-04-19 07:24 am-------29.84- 75.7- 75.6- 5.9-
2024-04-19 07:18 am-------29.84- 75.7- 75.6- 4.9-
2024-04-19 07:12 am-------29.84- 75.7- 75.6- 4.9-
2024-04-19 07:06 am-------29.84- 75.7- 75.6- 4.9-
2024-04-19 07:00 am-------29.84-0.01 75.7- 75.6- 4.9-
2024-04-19 06:54 am-------29.84- 75.7- 75.6- 4.9-
2024-04-19 06:48 am-------29.85- 75.7- 75.6- 4.9-
2024-04-19 06:42 am-------29.85- 75.9- 75.7- 4.9-
2024-04-19 06:36 am-------29.85- 75.9- 75.7- 4.9-
2024-04-19 06:30 am-------29.85- 75.9- 75.6- 4.9-
2024-04-19 06:24 am-------29.84- 76.1- 75.7- 4.9-
2024-04-19 06:18 am-------29.84- 76.1- 75.7- 4.9-
2024-04-19 06:12 am-------29.85- 76.1- 75.6- 4.9-
2024-04-19 06:06 am-------29.85- 76.3- 75.7- 5.9-
2024-04-19 06:00 am-------29.85+0.00 76.3- 75.9- 5.9-
2024-04-19 05:54 am-------29.85- 76.3- 75.9- 5.9-
2024-04-19 05:48 am-------29.85- 76.3- 75.9- 5.9-
2024-04-19 05:42 am-------29.85- 76.3- 76.1- 5.9-
2024-04-19 05:36 am-------29.85- 76.1- 75.9- 5.9-
2024-04-19 05:30 am-------29.85- 75.9- 75.9- 5.9-
2024-04-19 05:24 am-------29.85- 75.7- 75.7- 4.9-
2024-04-19 05:18 am-------29.85- 75.7- 75.7- 4.9-
2024-04-19 05:12 am-------29.85- 75.7- 75.7- 5.9-
2024-04-19 05:06 am-------29.84- 75.6- 75.6- 5.9-
2024-04-19 05:00 am-------29.84-0.01 75.6- 75.6- 5.9-
2024-04-19 04:54 am-------29.84- 75.6- 75.6- 4.9-
2024-04-19 04:48 am-------29.84- 75.6- 75.6- 4.9-
2024-04-19 04:42 am-------29.85- 75.7- 75.7- 5.9-
2024-04-19 04:36 am-------29.85- 75.7- 75.6- 4.9-
2024-04-19 04:30 am-------29.85- 75.7- 75.6- 4.9-
2024-04-19 04:24 am-------29.85- 75.7- 75.6- 4.9-
2024-04-19 04:18 am-------29.85- 75.7- 75.6- 5.9-
2024-04-19 04:12 am-------29.85- 75.6- 75.4- 5.9-
2024-04-19 04:06 am-------29.85- 75.4- 75.2- 4.9-
2024-04-19 04:00 am-------29.85-0.01 75.4- 75.4- 4.9-
2024-04-19 03:54 am-------29.85- 75.2- 75.2- 4.3-
2024-04-19 03:48 am-------29.85- 75.2- 75.0- 4.3-
2024-04-19 03:42 am-------29.86- 75.0- 74.8- 3.2-
2024-04-19 03:36 am-------29.86- 74.7- 74.7- 5.9-
2024-04-19 03:30 am-------29.86- 74.5- 74.5- 5.9-
2024-04-19 03:24 am-------29.85- 74.7- 74.7- 5.9-
2024-04-19 03:18 am-------29.85- 74.5- 74.5- 5.9-
2024-04-19 03:12 am-------29.84- 74.8- 74.8- 5.9-
2024-04-19 03:06 am-------29.84- 75.0- 75.0- 5.9-
2024-04-19 03:00 am-------29.84-0.02 74.8- 74.8- 5.9-
2024-04-19 02:54 am-------29.83- 74.8- 74.8- 5.9-
2024-04-19 02:48 am-------29.84- 74.8- 74.8- 5.9-
2024-04-19 02:42 am-------29.84- 74.8- 74.8- 5.9-
2024-04-19 02:36 am-------29.84- 74.8- 74.8- 5.9-
2024-04-19 02:30 am-------29.84- 74.8- 74.8- 5.9-
2024-04-19 02:24 am-------29.85- 75.0- 75.0- 5.9-
2024-04-19 02:18 am-------29.85- 75.0- 75.0- 5.9-
2024-04-19 02:12 am-------29.85- 75.2- 75.2- 5.9-
2024-04-19 02:06 am-------29.85- 75.2- 75.2- 5.9-
2024-04-19 02:00 am-------29.85-0.01 75.2- 75.2- 5.9-
2024-04-19 01:54 am-------29.85- 75.2- 75.2- 5.9-
2024-04-19 01:48 am-------29.85- 75.0- 75.0- 5.9-
2024-04-19 01:42 am-------29.86- 75.2- 75.2- 5.9-
2024-04-19 01:36 am-------29.86- 75.2- 75.2- 5.9-
2024-04-19 01:30 am-------29.87- 75.2- 75.2- 4.9-
2024-04-19 01:24 am-------29.87- 75.2- 75.2- 4.3-
2024-04-19 01:18 am-------29.87- 75.4- 75.4- 4.9-
2024-04-19 01:12 am-------29.87- 75.2- 75.2- 4.3-
2024-04-19 01:06 am-------29.87- 75.2- 75.2- 4.3-
2024-04-19 01:00 am-------29.86+0.01 75.2- 75.2- 4.9-
2024-04-19 12:54 am-------29.86- 75.2- 75.2- 4.9-
2024-04-19 12:48 am-------29.86- 75.2- 75.2- 4.3-
2024-04-19 12:42 am-------29.87- 75.2- 75.2- 4.9-
2024-04-19 12:36 am-------29.88- 75.4- 75.4- 4.9-
2024-04-19 12:30 am-------29.88- 75.4- 75.4- 4.9-
2024-04-19 12:24 am-------29.87- 75.4- 75.4- 4.9-
2024-04-19 12:18 am-------29.86- 75.4- 75.4- 4.9-
2024-04-19 12:12 am-------29.87- 75.4- 75.4- 4.9-
2024-04-19 12:06 am-------29.87- 75.4- 75.4- 4.3-
2024-04-19 12:00 am-------29.87+0.01 75.4- 75.4- 4.9-
2024-04-18 11:54 pm-------29.86- 75.4- 75.4- 4.9-
2024-04-18 11:48 pm-------29.86- 75.4- 75.4- 4.9-
2024-04-18 11:42 pm-------29.87- 75.4- 75.4- 4.9-
2024-04-18 11:36 pm-------29.86- 75.2- 75.2- 5.9-
2024-04-18 11:30 pm-------29.86- 75.2- 75.2- 5.9-
2024-04-18 11:24 pm-------29.86- 75.0- 75.0- 5.9-
2024-04-18 11:18 pm-------29.87- 75.0- 75.0- 5.9-
2024-04-18 11:12 pm-------29.86- 75.0- 75.0- 5.9-
2024-04-18 11:06 pm-------29.87- 75.0- 75.0- 4.9-
2024-04-18 11:00 pm-------29.87+0.03 75.0- 75.0- 5.9-
2024-04-18 10:54 pm-------29.87- 75.0- 75.0- 5.9-
2024-04-18 10:48 pm-------29.87- 75.2- 75.2- 5.9-
2024-04-18 10:42 pm-------29.85- 75.2- 75.2- 5.9-
2024-04-18 10:36 pm-------29.85- 75.2- 75.2- 5.9-
2024-04-18 10:30 pm-------29.85- 75.2- 75.2- 5.9-
2024-04-18 10:24 pm-------29.84- 75.2- 75.2- 5.9-
2024-04-18 10:18 pm-------29.84- 75.2- 75.2- 5.9-
2024-04-18 10:12 pm-------29.85- 75.2- 75.2- 5.9-
2024-04-18 10:06 pm-------29.85- 75.2- 75.2- 5.9-
2024-04-18 10:00 pm-------29.85+0.04 75.2- 75.2- 5.9-
2024-04-18 09:54 pm-------29.85- 75.4- 75.4- 5.9-
2024-04-18 09:48 pm-------29.87- 75.2- 75.2- 5.9-
2024-04-18 09:42 pm-------29.87- 75.2- 75.2- 5.9-
2024-04-18 09:36 pm-------29.86- 75.2- 75.2- 5.9-
2024-04-18 09:30 pm-------29.86- 75.0- 75.0- 5.9-
2024-04-18 09:24 pm-------29.87- 75.2- 75.2- 5.9-
2024-04-18 09:18 pm-------29.86- 75.2- 75.2- 5.9-
2024-04-18 09:12 pm-------29.86- 75.2- 75.2- 5.9-
2024-04-18 09:06 pm-------29.86- 75.2- 75.2- 5.9-
2024-04-18 09:00 pm-------29.85+0.04 75.2- 75.2- 5.9-
2024-04-18 08:54 pm-------29.86- 75.4- 75.2- 5.9-
2024-04-18 08:48 pm-------29.86- 75.4- 75.2- 5.9-
2024-04-18 08:42 pm-------29.85- 75.4- 75.2- 5.9-
2024-04-18 08:36 pm-------29.86- 75.6- 75.2- 5.9-
2024-04-18 08:30 pm-------29.86- 75.7- 75.4- 5.9-
2024-04-18 08:24 pm-------29.86- 75.6- 75.0- 5.9-
2024-04-18 08:18 pm-------29.85- 75.6- 75.0- 5.9-
2024-04-18 08:12 pm-------29.85- 75.7- 75.2- 5.9-
2024-04-18 08:06 pm-------29.84- 75.7- 75.2- 5.9-
2024-04-18 08:00 pm-------29.84+0.02 75.7- 75.2- 5.9-
2024-04-18 07:54 pm-------29.85- 75.7- 75.2- 5.9-
2024-04-18 07:48 pm-------29.85- 75.7- 75.2- 5.9-
2024-04-18 07:42 pm-------29.86- 75.6- 75.0- 5.9-
2024-04-18 07:36 pm-------29.86- 75.7- 75.2- 5.9-
2024-04-18 07:30 pm-------29.85- 75.7- 75.2- 5.9-
2024-04-18 07:24 pm-------29.84- 75.7- 75.2- 5.9-
2024-04-18 07:18 pm-------29.83- 75.7- 75.0- 5.9-
2024-04-18 07:12 pm-------29.82- 75.7- 75.0- 5.9-
2024-04-18 07:06 pm-------29.82- 75.6- 74.8- 5.9-
2024-04-18 07:00 pm-------29.81-0.02 75.7- 74.8- 5.9-
2024-04-18 06:54 pm-------29.81- 75.7- 74.7- 5.9-
2024-04-18 06:48 pm-------29.83- 75.9- 74.8- 5.9-
2024-04-18 06:42 pm-------29.82- 76.1- 75.0- 5.9-
2024-04-18 06:36 pm-------29.82- 75.9- 74.7- 5.9-
2024-04-18 06:30 pm-------29.82- 76.3- 74.8- 5.9-
2024-04-18 06:24 pm-------29.82- 76.3- 74.8- 5.9-
2024-04-18 06:18 pm-------29.82- 76.5- 74.8- 5.9-
2024-04-18 06:00 pm-------29.82-0.01 76.3- 75.0- 5.9-
2024-04-18 05:54 pm-------29.82- 76.1- 74.8- 5.9-
2024-04-18 05:48 pm-------29.82- 76.1- 74.8- 5.9-
2024-04-18 05:42 pm-------29.82- 76.3- 74.8- 5.9-
2024-04-18 05:36 pm-------29.82- 76.1- 74.5- 5.9-
2024-04-18 05:30 pm-------29.81- 76.6- 74.8- 5.9-
2024-04-18 05:24 pm-------29.81- 76.6- 74.8- 5.9-
2024-04-18 05:18 pm-------29.81- 76.6- 74.7- 5.9-
2024-04-18 05:12 pm-------29.81- 77.0- 75.0- 5.9-
2024-04-18 05:06 pm-------29.81- 77.2- 74.8- 5.9-
2024-04-18 05:00 pm-------29.82-0.03---- 5.9-
2024-04-18 04:54 pm-------29.82----- 5.9-